Lapse_Rate
7.6 6.8 7.1 7.7 7.8 8.1 8.3 8.4 8.1 8.1 8.5 7.3 6.8 6.8 6.8 6.7 6.3 7.0 7.4 8.4 9.1 8.5 9.0 8.7 7.1 5.3 5.5 5.3 4.9 4.8 4.6 4.3 4.0 4.4 5.4 6.3 7.8 7.1 6.8 6.5 6.5 7.8 6.7
7.1 6.6 6.9 7.7 7.8 7.9 8.7 7.9 8.3 8.3 8.4 7.7 6.8 6.8 6.4 6.1 6.2 6.4 6.7 7.5 8.7 8.7 8.7 8.8 7.7 5.7 5.0 4.7 4.5 4.5 4.8 4.7 4.5 4.6 5.0 5.7 7.7 7.9 7.1 6.8 6.0 6.1 6.0
6.4 7.0 7.5 7.8 7.6 8.2 7.9 8.0 8.4 8.6 8.2 7.7 6.7 6.2 6.2 6.6 6.6 6.6 6.5 7.2 8.5 8.4 8.5 8.6 8.6 7.8 5.2 4.9 4.6 4.6 4.7 4.8 4.6 4.6 5.2 5.8 7.8 8.2 8.2 7.2 6.6 6.5 6.4
7.7 7.7 7.4 7.0 7.3 7.7 8.3 8.4 8.4 8.1 7.6 6.7 7.0 7.7 8.1 6.9 6.6 6.7 7.1 8.1 8.8 8.9 8.3 8.6 8.9 6.6 5.5 5.0 4.9 4.5 4.5 4.5 4.5 4.7 4.7 7.0 9.1 7.9 8.3 8.0 7.4 7.2 7.3
7.5 6.9 6.9 7.1 7.4 8.0 8.3 7.8 7.9 6.6 6.1 6.8 6.9 7.0 6.7 6.7 6.8 8.1 8.1 8.2 7.4 8.5 8.3 7.9 7.5 6.3 5.6 5.4 5.4 5.1 4.7 4.5 4.4 4.6 6.1 7.2 9.0 8.2 7.8 8.3 8.9 8.5 7.8
6.5 6.6 7.1 7.0 7.4 7.3 7.0 6.5 6.2 5.8 5.9 6.0 6.3 6.2 6.6 6.9 7.2 7.6 6.8 6.7 6.4 6.8 6.7 6.9 6.4 6.1 5.7 5.5 5.3 5.1 4.9 4.5 4.4 4.8 6.1 8.2 8.6 8.0 7.8 7.9 7.9 8.1 8.6
6.7 7.1 7.1 7.1 7.0 6.6 7.4 6.6 6.4 6.4 6.3 6.1 6.1 6.5 6.7 6.6 6.5 6.6 6.5 6.4 6.3 6.5 6.6 6.7 6.4 6.2 6.0 5.6 5.4 5.2 4.9 4.7 4.8 4.7 6.6 8.6 7.3 7.8 7.7 7.5 6.9 7.6 8.6
7.2 7.4 7.9 6.8 6.5 6.0 6.2 6.2 6.3 5.9 5.9 6.1 6.2 6.3 6.5 6.5 6.6 6.4 6.4 6.3 6.4 6.6 6.7 6.6 6.3 6.1 6.0 5.9 5.9 5.9 5.6 5.3 5.1 5.0 6.6 8.3 6.9 7.6 8.6 8.6 7.6 7.2 7.9
7.8 9.0 8.8 7.3 5.9 5.6 5.5 5.6 5.7 5.6 5.8 5.9 6.1 6.4 6.5 6.4 7.1 7.5 7.8 6.8 7.3 7.0 7.0 6.6 6.8 6.5 6.5 6.9 7.0 6.5 6.4 6.2 6.3 6.1 8.1 6.7 7.0 7.5 7.9 9.3 9.1 8.2 8.3
9.3 9.3 8.2 7.8 8.0 7.3 6.4 5.5 5.8 6.5 6.2 6.0 6.4 7.1 7.7 8.1 8.0 8.9 8.3 7.6 7.6 7.5 7.6 7.1 7.2 7.3 7.7 7.7 7.9 7.8 7.4 7.8 8.1 8.7 8.5 7.0 7.1 7.5 7.9 8.7 9.0 9.2 9.0
9.5 9.4 9.2 9.2 8.6 8.5 7.8 6.7 6.0 6.9 7.0 7.2 7.4 7.7 9.1 9.0 9.4 9.5 8.9 7.3 7.3 7.6 7.9 9.2 8.6 9.1 8.3 8.6 9.7 9.0 9.0 9.0 8.4 8.4 8.8 7.7 7.9 7.9 8.2 8.2 9.2 9.4 9.5
9.1 9.4 8.2 7.5 7.6 7.9 8.4 8.7 8.5 8.7 7.0 8.8 9.2 8.4 8.6 9.5 9.3 9.6 9.5 8.3 8.2 9.5 9.1 9.5 9.7 9.7 9.4 9.2 9.5 9.6 9.5 9.2 9.2 9.1 9.2 9.5 9.6 9.5 9.3 8.4 9.3 9.6 9.6
9.2 8.7 8.5 7.1 6.9 7.1 8.0 8.3 8.3 9.4 9.3 8.4 8.7 9.1 9.0 9.1 9.1 9.3 9.2 9.5 9.4 9.7 9.3 9.5 9.4 9.5 9.2 9.3 9.4 9.3 9.3 9.4 9.4 9.3 9.3 9.6 9.7 9.7 9.7 9.6 9.6 9.6 9.6
8.1 7.2 6.8 5.8 5.8 5.9 6.6 7.7 8.4 9.0 9.1 8.7 7.8 7.4 7.6 8.2 9.1 9.1 9.2 9.2 9.4 9.5 9.0 9.2 9.3 9.2 9.1 9.3 9.2 9.0 9.2 9.1 9.3 9.4 9.5 9.7 9.7 9.7 9.7 9.7 9.7 9.6 9.5
5.9 5.9 5.8 5.5 5.6 6.3 6.9 8.9 9.3 9.1 9.0 9.1 8.4 8.3 8.8 8.9 8.9 8.7 9.1 8.9 9.2 9.4 8.7 8.9 9.1 8.9 8.9 9.1 9.1 9.0 8.8 9.0 9.2 9.2 9.3 9.7 9.7 9.8 9.7 9.7 9.7 9.7 9.6
5.1 4.6 4.1 5.0 5.9 7.2 9.1 8.8 9.2 8.6 9.1 9.3 9.1 9.1 8.7 8.7 8.9 9.1 8.9 9.1 9.2 8.5 8.4 9.1 8.8 8.5 8.3 8.8 8.6 8.8 8.7 9.0 9.2 9.2 9.2 9.4 9.7 9.8 9.8 9.8 9.8 9.7 9.7
4.1 4.5 5.3 5.9 7.8 8.7 8.6 9.2 9.3 8.6 9.4 9.3 9.3 9.1 8.4 8.7 9.1 9.0 9.0 8.7 8.9 8.4 9.2 9.3 9.0 9.1 8.4 9.1 8.4 8.7 8.7 8.8 8.9 8.9 9.1 9.4 9.6 9.6 9.7 9.7 9.7 9.3 9.6
4.6 5.8 7.2 9.6 9.4 8.9 9.0 9.2 9.3 8.9 9.4 9.4 9.5 9.2 8.6 9.2 9.1 9.4 9.1 8.8 8.8 9.1 9.0 8.6 7.5 8.0 8.3 8.3 8.3 8.0 7.2 8.4 8.7 8.7 9.0 8.9 9.0 9.2 9.5 9.6 8.8 9.2 9.6
6.4 6.8 9.3 9.1 9.3 8.9 9.0 9.3 9.1 9.2 9.3 9.4 9.4 8.9 9.0 9.5 9.2 9.3 9.2 9.1 9.1 9.0 8.5 8.0 7.8 7.7 7.9 8.1 8.3 8.0 7.4 7.9 7.2 9.2 8.2 8.9 9.3 9.2 9.3 9.6 9.7 9.6 9.0
8.6 9.4 9.2 9.3 8.9 8.6 9.0 9.1 9.2 9.1 9.3 9.4 9.5 9.0 9.2 9.3 9.4 9.4 9.2 8.9 9.2 8.7 8.2 8.0 7.6 7.8 7.6 7.9 9.1 8.7 7.3 7.3 7.2 7.6 7.4 9.0 8.9 8.7 9.1 9.0 9.0 9.3 8.9
9.1 9.3 9.3 9.0 8.6 8.9 8.8 8.6 8.6 8.2 8.3 8.3 9.3 9.4 9.4 9.3 9.4 9.4 9.2 9.2 9.1 8.4 8.2 8.1 7.8 7.5 7.8 7.7 7.4 7.6 7.3 7.9 7.5 7.4 8.3 8.3 8.0 8.8 9.0 9.2 8.9 9.2 9.2
9.1 9.1 9.1 9.1 8.9 9.2 8.9 8.8 8.6 8.3 8.3 8.5 9.2 9.3 8.8 9.4 9.4 9.5 9.0 8.7 8.8 8.5 8.3 8.1 7.7 7.7 7.7 7.9 7.5 7.4 7.0 7.4 7.5 7.7 7.5 7.9 7.3 8.6 8.7 9.2 8.9 8.6 8.4
8.9 8.9 9.1 9.2 9.2 9.0 8.9 9.2 8.9 8.8 8.9 8.6 8.6 8.7 9.2 9.3 9.5 9.3 9.1 8.6 8.5 8.8 8.4 8.0 7.9 7.4 7.8 7.9 7.8 7.4 6.9 6.7 7.6 7.3 7.3 7.1 7.1 7.1 7.5 8.4 8.9 9.1 8.9
8.8 9.1 9.3 9.1 9.2 9.1 9.1 8.9 8.4 8.6 8.5 8.4 8.5 8.9 9.2 9.4 9.1 9.2 8.5 8.4 8.9 8.9 8.3 8.3 8.9 8.0 7.9 7.8 8.0 8.7 7.8 7.4 7.4 6.6 6.9 7.0 7.1 8.1 8.0 7.9 8.0 8.8 8.6
9.0 8.9 9.0 9.0 9.2 8.9 9.0 8.8 8.7 8.5 8.6 8.8 8.4 8.3 8.1 9.1 9.3 9.2 8.6 9.0 8.8 8.9 8.5 8.0 8.1 8.0 8.0 8.0 7.6 7.4 7.4 7.4 7.4 6.9 6.9 7.3 7.4 7.3 7.6 7.4 7.5 8.1 8.6
9.1 9.0 8.9 9.0 8.8 8.9 8.9 8.7 8.5 8.3 8.2 8.4 8.1 8.4 8.5 8.6 9.1 9.3 9.1 9.1 9.2 8.9 8.5 8.3 7.9 8.0 8.0 7.9 8.0 8.2 7.1 6.9 7.1 7.0 6.7 6.9 7.5 7.6 7.5 7.3 7.1 7.4 8.6
Wind_Speed
12 17 16 16 15 17 16 15 15 16 15 14 14 14 15 14 14 14 14 14 14 15 14 15 16 17 17 17 18 18 19 20 19 18 15 12 7 4 6 9 14 14 13
17 16 15 16 15 16 15 15 14 16 13 13 13 13 13 14 14 14 14 14 14 14 16 16 17 16 17 18 19 20 20 20 20 19 17 15 10 1 4 6 9 10 10
15 16 15 15 16 16 15 14 14 14 12 12 12 12 12 13 13 13 13 14 14 15 15 15 15 16 17 18 18 19 20 21 23 22 20 16 13 5 2 5 7 7 7
15 15 16 17 18 17 16 14 13 12 11 10 10 11 11 11 12 12 11 13 14 14 13 14 14 15 16 17 18 18 19 21 24 25 20 19 5 7 5 4 4 5 7
17 17 18 19 17 16 14 12 12 11 10 11 12 11 11 11 11 10 11 12 13 14 15 14 13 14 15 16 17 18 18 20 23 24 22 21 8 6 4 2 3 4 6
16 17 17 17 16 15 12 11 10 9 9 10 10 11 11 11 10 11 11 11 12 14 14 14 13 15 15 17 17 17 18 20 22 21 24 18 5 7 5 3 3 3 4
13 16 16 16 16 13 11 11 10 9 10 10 11 10 9 9 10 10 12 13 14 15 14 14 14 15 16 17 18 19 19 20 18 20 21 15 13 7 6 6 8 5 3
12 15 15 15 16 14 12 9 8 9 9 8 8 7 6 6 7 9 10 14 15 15 15 15 16 17 17 17 17 17 19 20 18 18 21 9 11 7 5 5 7 7 5
15 15 15 15 15 13 13 10 8 7 6 5 4 4 2 3 4 5 7 9 10 12 14 14 16 17 18 16 15 16 22 21 17 17 18 13 10 7 7 6 1 2 3
11 16 15 16 15 14 10 7 5 4 4 3 1 4 6 7 8 2 2 4 6 7 10 10 13 17 18 18 18 16 19 22 18 12 16 10 9 10 10 10 12 6 5
10 8 12 14 12 9 12 5 7 8 7 6 7 5 17 10 13 10 9 4 6 9 12 8 14 14 19 20 19 7 16 11 17 15 15 7 11 12 13 13 13 16 13
12 12 16 17 13 10 2 5 10 8 11 6 5 7 11 12 15 14 16 9 8 13 12 13 18 19 12 15 15 15 13 16 15 14 16 19 15 16 15 15 15 17 19
12 11 11 10 9 11 14 14 11 10 6 10 6 6 12 15 15 12 15 12 15 15 10 15 15 13 12 14 12 13 10 12 13 14 15 20 18 16 15 15 17 18 20
15 16 13 13 10 11 12 9 9 9 9 10 13 15 13 12 13 12 13 15 15 13 11 14 13 15 14 17 15 10 11 10 10 13 14 19 17 17 15 15 16 18 20
14 12 10 12 9 8 9 9 10 10 12 9 7 10 12 11 11 15 14 16 14 14 13 14 14 11 12 13 14 12 9 10 11 13 12 16 18 16 14 17 16 16 20
11 9 6 4 6 10 7 11 9 13 15 9 8 10 15 14 12 13 14 14 12 15 16 15 11 9 8 12 10 13 11 11 11 14 11 12 17 17 14 15 15 15 17
7 4 5 5 6 9 10 8 10 12 12 11 12 15 16 16 12 14 13 12 11 16 17 14 12 11 8 12 9 11 11 11 13 14 11 11 12 12 17 15 17 10 15
2 6 6 7 11 10 4 6 3 7 5 8 10 11 16 16 16 13 12 11 14 14 13 9 4 7 7 7 7 7 5 8 14 11 11 7 9 13 12 16 7 11 15
4 5 7 6 8 7 10 11 13 11 9 10 9 12 11 12 14 13 13 12 16 12 8 6 6 6 6 8 8 7 5 7 5 12 6 6 9 13 10 11 17 14 13
4 5 8 7 9 13 8 10 11 9 9 9 9 10 9 10 13 13 13 13 14 9 6 6 7 6 6 7 8 9 6 5 5 7 2 7 7 6 15 13 13 14 7
3 7 8 8 8 8 8 6 6 6 5 4 10 12 9 12 11 13 10 13 13 8 8 9 6 7 7 7 6 7 5 8 8 6 8 8 8 7 7 12 15 14 6
7 7 8 9 8 7 7 6 6 5 4 6 11 12 17 13 13 13 11 8 11 8 10 8 9 7 6 7 8 8 7 6 6 6 4 5 7 9 7 11 10 14 15
8 7 8 8 8 8 9 8 8 8 9 6 6 6 14 16 14 15 13 13 13 11 8 8 8 9 8 9 8 7 8 4 8 5 7 5 6 5 5 9 10 13 13
7 6 7 8 8 8 10 7 8 7 7 6 6 8 11 17 15 15 16 17 14 12 8 8 8 9 9 10 8 7 8 7 7 5 3 6 6 7 7 5 6 12 15
8 7 5 7 8 7 7 6 6 6 6 6 6 8 8 12 15 15 16 15 12 11 9 8 9 9 8 9 7 6 5 5 6 6 8 6 5 5 5 5 5 9 13
8 5 4 6 8 6 6 7 6 6 7 7 7 7 8 6 9 12 15 14 14 11 8 7 7 9 9 9 7 6 5 5 5 5 5 7 7 6 5 5 5 6 11
Wind_Direction
106 115 110 100 97 94 89 81 77 76 67 64 59 55 51 49 44 36 31 25 21 24 23 24 18 17 11 8 6 2 359 354 349 342 331 323 335 27 49 35 19 35 23
108 114 112 106 100 95 93 93 88 80 74 68 64 57 50 45 39 33 26 21 20 17 19 16 12 8 4 3 1 355 351 348 344 335 323 308 273 188 62 70 47 19 13
113 122 116 110 105 97 90 87 89 83 76 68 60 54 47 43 37 28 20 18 22 17 10 9 4 2 1 360 357 353 349 344 339 333 321 294 262 152 108 65 54 14 4
121 117 111 107 101 94 89 85 86 83 74 66 63 50 50 41 32 25 25 24 14 4 5 359 1 360 356 354 351 349 346 339 335 328 315 298 316 120 98 72 36 16 1
91 96 107 105 101 95 89 86 85 80 73 64 57 48 42 35 29 38 27 15 8 1 357 355 358 353 350 348 344 342 339 335 332 323 296 273 308 121 50 31 347 18 349
99 101 104 105 103 97 107 100 95 87 72 67 53 45 41 38 28 30 23 17 7 358 356 353 350 348 344 340 338 336 333 331 328 317 311 311 260 69 70 31 74 7 339
109 112 107 106 103 103 97 91 87 73 65 56 47 35 40 42 35 29 21 14 6 359 355 349 346 341 338 333 333 334 330 325 321 307 302 312 64 63 56 57 65 31 334
127 121 112 104 100 95 86 83 84 81 68 57 46 39 32 41 40 32 25 13 5 355 349 346 342 335 330 326 326 328 327 324 318 307 297 325 62 38 15 43 57 53 15
155 127 117 105 104 105 106 99 101 97 94 82 47 16 333 357 28 40 29 15 359 348 340 342 340 332 326 318 315 314 318 325 314 288 293 53 45 22 355 332 309 32 19
142 115 127 148 139 131 116 117 126 149 159 145 186 312 309 290 271 318 324 346 331 322 323 319 318 313 314 309 297 291 298 311 302 306 327 51 27 6 346 326 308 267 267
118 126 127 115 98 131 142 137 197 211 197 203 224 327 344 10 320 348 309 242 252 274 294 306 294 301 298 303 340 260 289 330 349 312 295 48 1 347 335 323 311 292 272
134 121 69 50 34 35 35 238 226 238 202 209 49 7 341 348 327 339 347 265 276 319 292 342 330 324 351 347 318 335 332 334 308 317 314 323 336 325 324 317 302 289 280
105 87 80 79 43 358 0 358 -0 328 19 80 77 31 20 352 349 347 331 340 326 322 357 330 335 329 347 312 309 295 309 306 311 316 326 316 316 319 315 309 300 286 279
67 56 54 47 22 13 358 336 294 359 17 31 51 40 17 357 332 342 337 338 316 332 353 347 326 320 340 311 296 299 292 290 312 303 298 306 313 301 304 305 301 284 275
68 56 43 28 3 343 299 332 1 8 10 28 53 31 27 357 347 349 338 318 332 345 3 337 313 333 314 313 318 301 309 312 298 291 290 301 302 307 298 302 306 293 276
63 47 21 355 306 281 344 358 11 37 341 359 43 42 37 0 4 346 326 328 330 10 348 308 320 325 326 328 317 324 311 308 311 305 312 312 305 301 296 289 299 303 290
57 32 264 247 252 29 14 12 358 49 343 10 13 35 34 357 8 347 328 321 356 355 319 319 335 337 340 325 323 319 312 332 324 296 307 290 287 304 319 317 309 305 308
134 225 254 30 29 360 56 307 284 89 334 25 10 32 29 340 9 342 326 326 356 334 312 324 335 345 319 323 313 304 303 327 294 311 289 331 349 319 316 298 289 291 307
216 238 64 52 17 338 23 1 9 20 7 26 21 43 18 338 358 346 326 327 342 317 320 330 346 313 314 308 305 313 325 304 295 301 347 327 311 291 278 308 307 296 295
188 93 75 42 24 352 36 4 6 2 357 19 3 33 12 3 347 339 320 344 330 323 335 331 307 303 305 304 313 309 297 299 308 291 261 259 309 359 337 333 324 319 295
116 70 47 52 39 13 360 14 359 342 354 18 10 7 11 358 345 335 339 331 333 338 325 313 308 318 314 302 309 311 309 311 329 2 4 350 328 336 316 329 315 291 294
85 61 47 43 46 25 359 18 353 337 348 22 7 0 13 342 350 340 337 331 340 335 312 325 326 315 312 317 320 313 315 309 296 339 330 319 315 338 317 291 328 314 321
76 50 52 41 37 37 15 14 353 355 355 9 353 1 344 356 347 348 350 359 346 321 329 318 326 335 323 318 309 307 315 310 309 314 313 310 324 318 298 301 311 280 279
92 69 43 52 41 35 31 10 355 4 352 354 1 350 340 346 357 357 12 358 328 334 320 332 336 326 325 316 315 327 320 318 312 310 323 320 318 319 322 305 321 327 323
91 75 44 48 45 42 17 17 10 4 340 350 4 337 358 335 353 3 4 345 339 328 336 333 329 329 318 316 315 321 315 319 314 314 314 316 309 303 323 325 318 311 297
74 54 60 43 60 41 26 15 18 2 337 346 359 347 350 347 345 355 355 346 331 333 328 324 324 317 311 304 323 329 327 321 317 320 312 310 303 309 303 301 288 278 285